| time (UTC) | temp F | wind direction | speed knots | gust knots | rain 1hr in | rain 24hr in | rain mn in | humidity % | barometer mb |
| 20260503004821 | 45 | 34 | 0.0 | 0.0 | 0.00 | 0.00 | 0.00 | 91 | 1020.0 |
| 20260503004320 | 45 | 34 | 0.0 | 0.0 | 0.00 | 0.00 | 0.00 | 91 | 1020.0 |
| 20260503003821 | 46 | 34 | 0.0 | 0.0 | 0.00 | 0.00 | 0.00 | 91 | 1020.0 |
| 20260503003321 | 46 | 34 | 0.0 | 0.0 | 0.00 | 0.00 | 0.00 | 90 | 1020.0 |
| 20260503002821 | 46 | 34 | 0.0 | 0.0 | 0.00 | 0.00 | 0.00 | 90 | 1020.1 |
| 20260503002321 | 46 | 34 | 0.0 | 0.0 | 0.00 | 0.00 | 0.00 | 90 | 1020.2 |
| 20260503001821 | 46 | 34 | 0.0 | 0.0 | 0.00 | 0.00 | 0.00 | 90 | 1020.2 |
| 20260503000820 | 46 | 34 | 0.0 | 0.0 | 0.00 | 0.00 | 0.00 | 90 | 1020.2 |
| 20260503000320 | 47 | 34 | 0.0 | 0.0 | 0.00 | 0.00 | 0.00 | 90 | 1020.4 |
| 20260502235821 | 47 | 34 | 0.0 | 0.0 | 0.00 | 0.00 | 0.00 | 90 | 1020.4 |
| 20260502235320 | 47 | 34 | 0.0 | 0.0 | 0.00 | 0.00 | 0.00 | 90 | 1020.4 |
| 20260502234820 | 47 | 34 | 0.0 | 0.0 | 0.00 | 0.00 | 0.00 | 89 | 1020.4 |
| 20260502234320 | 47 | 34 | 0.0 | 0.0 | 0.00 | 0.00 | 0.00 | 88 | 1020.5 |
| 20260502233821 | 48 | 34 | 0.0 | 0.0 | 0.00 | 0.00 | 0.00 | 88 | 1020.5 |
| 20260502233321 | 48 | 34 | 0.0 | 0.0 | 0.00 | 0.00 | 0.00 | 88 | 1020.5 |
| 20260502232320 | 48 | 34 | 0.0 | 0.0 | 0.00 | 0.00 | 0.00 | 88 | 1020.6 |
| 20260502231820 | 48 | 34 | 0.0 | 0.0 | 0.00 | 0.00 | 0.00 | 88 | 1020.6 |
| 20260502231321 | 48 | 34 | 0.0 | 0.0 | 0.00 | 0.00 | 0.00 | 87 | 1020.6 |
| 20260502230821 | 49 | 34 | 0.0 | 0.0 | 0.00 | 0.00 | 0.00 | 87 | 1020.6 |
| 20260502230321 | 49 | 34 | 0.0 | 0.0 | 0.00 | 0.00 | 0.00 | 87 | 1020.6 |
| 20260502225820 | 49 | 34 | 0.0 | 0.0 | 0.00 | 0.00 | 0.00 | 86 | 1020.6 |
| 20260502224821 | 49 | 34 | 0.0 | 0.0 | 0.00 | 0.00 | 0.00 | 86 | 1020.7 |
| 20260502224321 | 49 | 34 | 0.0 | 0.0 | 0.00 | 0.00 | 0.00 | 86 | 1020.6 |
| 20260502223821 | 50 | 34 | 0.0 | 0.0 | 0.00 | 0.00 | 0.00 | 85 | 1020.6 |
| 20260502222820 | 50 | 34 | 0.0 | 0.0 | 0.00 | 0.00 | 0.00 | 84 | 1020.7 |
| 20260502221820 | 51 | 34 | 0.0 | 0.0 | 0.00 | 0.00 | 0.00 | 84 | 1020.8 |
| 20260502221320 | 51 | 34 | 0.0 | 0.0 | 0.00 | 0.00 | 0.00 | 83 | 1020.7 |
| 20260502220828 | 51 | 34 | 0.0 | 0.0 | 0.00 | 0.00 | 0.00 | 82 | 1020.7 |
| 20260502220320 | 51 | 34 | 0.0 | 0.0 | 0.00 | 0.00 | 0.00 | 82 | 1020.7 |
| 20260502215820 | 52 | 34 | 0.0 | 0.0 | 0.00 | 0.00 | 0.00 | 82 | 1020.7 |
| 20260502215320 | 52 | 34 | 0.0 | 0.0 | 0.00 | 0.00 | 0.00 | 81 | 1020.7 |
| 20260502214820 | 52 | 18 | 0.0 | 0.0 | 0.00 | 0.00 | 0.00 | 80 | 1020.6 |
| 20260502214320 | 52 | 45 | 0.0 | 0.0 | 0.00 | 0.00 | 0.00 | 80 | 1020.6 |
| 20260502213820 | 53 | 20 | 0.0 | 0.0 | 0.00 | 0.00 | 0.00 | 80 | 1020.6 |
| 20260502213320 | 53 | 36 | 0.0 | 0.0 | 0.00 | 0.00 | 0.00 | 80 | 1020.6 |
| 20260502212821 | 53 | 20 | 0.0 | 0.0 | 0.00 | 0.00 | 0.00 | 79 | 1020.6 |
| 20260502212320 | 53 | 26 | 0.0 | 0.0 | 0.00 | 0.00 | 0.00 | 79 | 1020.5 |
| 20260502211320 | 54 | 51 | 0.0 | 0.0 | 0.00 | 0.00 | 0.00 | 78 | 1020.6 |
| 20260502210820 | 54 | 37 | 0.0 | 0.0 | 0.00 | 0.00 | 0.00 | 77 | 1020.6 |
| 20260502210321 | 54 | 58 | 0.0 | 0.0 | 0.00 | 0.00 | 0.00 | 77 | 1020.6 |
| 20260502205820 | 54 | 57 | 0.0 | 0.9 | 0.00 | 0.00 | 0.00 | 76 | 1020.6 |
| 20260502205320 | 54 | 40 | 0.0 | 0.9 | 0.00 | 0.00 | 0.00 | 76 | 1020.6 |
| 20260502204321 | 55 | 38 | 0.0 | 0.9 | 0.00 | 0.00 | 0.00 | 74 | 1020.6 |
| 20260502203320 | 56 | 38 | 0.0 | 1.7 | 0.00 | 0.00 | 0.00 | 73 | 1020.5 |
| 20260502202821 | 56 | 38 | 0.0 | 4.3 | 0.00 | 0.00 | 0.00 | 73 | 1020.5 |
| 20260502202320 | 57 | 38 | 0.9 | 5.2 | 0.00 | 0.00 | 0.00 | 72 | 1020.5 |
| 20260502200820 | 58 | 304 | 1.7 | 2.6 | 0.00 | 0.00 | 0.00 | 70 | 1020.4 |
| 20260502200320 | 58 | 304 | 0.9 | 4.3 | 0.00 | 0.00 | 0.00 | 69 | 1020.4 |
| 20260502195820 | 58 | 313 | 0.9 | 4.3 | 0.00 | 0.00 | 0.00 | 68 | 1020.4 |
| 20260502195320 | 58 | 295 | 2.6 | 4.3 | 0.00 | 0.00 | 0.00 | 68 | 1020.4 |
| 20260502194820 | 59 | 303 | 0.9 | 5.2 | 0.00 | 0.00 | 0.00 | 68 | 1020.3 |
| 20260502193820 | 59 | 291 | 1.7 | 5.2 | 0.00 | 0.00 | 0.00 | 67 | 1020.2 |
| 20260502192820 | 59 | 303 | 0.9 | 5.2 | 0.00 | 0.00 | 0.00 | 67 | 1020.2 |
| 20260502192320 | 59 | 316 | 1.7 | 5.2 | 0.00 | 0.00 | 0.00 | 67 | 1020.1 |
| 20260502191820 | 59 | 311 | 1.7 | 4.3 | 0.00 | 0.00 | 0.00 | 67 | 1020.1 |
| 20260502190820 | 59 | 304 | 0.9 | 2.6 | 0.00 | 0.00 | 0.00 | 67 | 1020.1 |
| 20260502185320 | 60 | 290 | 0.9 | 4.3 | 0.00 | 0.00 | 0.00 | 66 | 1020.0 |
| 20260502184820 | 60 | 290 | 1.7 | 4.3 | 0.00 | 0.00 | 0.00 | 67 | 1019.9 |
| 20260502184320 | 60 | 303 | 1.7 | 7.0 | 0.00 | 0.00 | 0.00 | 67 | 1019.9 |
| 20260502183820 | 60 | 305 | 1.7 | 7.0 | 0.00 | 0.00 | 0.00 | 66 | 1019.8 |
| 20260502183321 | 60 | 312 | 1.7 | 7.0 | 0.00 | 0.00 | 0.00 | 67 | 1019.7 |
| 20260502182820 | 60 | 309 | 1.7 | 5.2 | 0.00 | 0.00 | 0.00 | 66 | 1019.6 |
| 20260502182320 | 61 | 308 | 1.7 | 5.2 | 0.00 | 0.00 | 0.00 | 66 | 1019.5 |
| 20260502181820 | 61 | 313 | 2.6 | 4.3 | 0.00 | 0.00 | 0.00 | 66 | 1019.5 |
| 20260502181320 | 62 | 311 | 3.5 | 6.1 | 0.00 | 0.00 | 0.00 | 65 | 1019.4 |
| 20260502180320 | 63 | 319 | 1.7 | 5.2 | 0.00 | 0.00 | 0.00 | 63 | 1019.3 |
| 20260502170322 | 69 | 132 | 1.7 | 6.1 | 0.00 | 0.00 | 0.00 | 49 | 1018.9 |
| 20260502164321 | 70 | 103 | 0.0 | 1.7 | 0.00 | 0.00 | 0.00 | 46 | 1019.0 |
| 20260502163820 | 71 | 103 | 0.9 | 1.7 | 0.00 | 0.00 | 0.00 | 44 | 1018.9 |
| 20260502163320 | 71 | 103 | 0.0 | 2.6 | 0.00 | 0.00 | 0.00 | 44 | 1019.0 |
| 20260502162820 | 71 | 103 | 0.0 | 2.6 | 0.00 | 0.00 | 0.00 | 44 | 1018.9 |
| 20260502162320 | 71 | 103 | 1.7 | 2.6 | 0.00 | 0.00 | 0.00 | 42 | 1018.9 |
| 20260502161819 | 72 | 94 | 0.0 | 2.6 | 0.00 | 0.00 | 0.00 | 41 | 1019.0 |
| 20260502161319 | 72 | 121 | 0.9 | 6.1 | 0.00 | 0.00 | 0.00 | 42 | 1018.9 |
| 20260502160819 | 72 | 124 | 2.6 | 6.1 | 0.00 | 0.00 | 0.00 | 42 | 1019.0 |
| 20260502160320 | 72 | 92 | 1.7 | 6.1 | 0.00 | 0.00 | 0.00 | 41 | 1019.0 |
| 20260502152320 | 73 | 99 | 1.7 | 6.1 | 0.00 | 0.00 | 0.00 | 40 | 1019.4 |
| 20260502151320 | 73 | 173 | 1.7 | 7.0 | 0.00 | 0.00 | 0.00 | 40 | 1019.6 |
| 20260502150820 | 73 | 137 | 3.5 | 7.0 | 0.00 | 0.00 | 0.00 | 40 | 1019.6 |
| 20260502150319 | 73 | 142 | 2.6 | 7.8 | 0.00 | 0.00 | 0.00 | 41 | 1019.6 |
| 20260502130319 | 76 | 127 | 4.3 | 7.0 | 0.00 | 0.00 | 0.00 | 36 | 1020.6 |
| 20260502122819 | 75 | 94 | 2.6 | 7.8 | 0.00 | 0.00 | 0.00 | 40 | 1021.1 |
| 20260502122319 | 75 | 113 | 4.3 | 10.4 | 0.00 | 0.00 | 0.00 | 38 | 1021.1 |
| 20260502121319 | 75 | 109 | 5.2 | 10.4 | 0.00 | 0.00 | 0.00 | 37 | 1021.2 |
| 20260502120819 | 75 | 146 | 3.5 | 10.4 | 0.00 | 0.00 | 0.00 | 38 | 1021.3 |
| 20260502115819 | 76 | 127 | 3.5 | 7.8 | 0.00 | 0.00 | 0.00 | 40 | 1021.3 |
| 20260502114819 | 75 | 136 | 2.6 | 7.8 | 0.00 | 0.00 | 0.00 | 39 | 1021.4 |
| 20260502114320 | 74 | 123 | 3.5 | 7.8 | 0.00 | 0.00 | 0.00 | 38 | 1021.4 |
| 20260502113819 | 74 | 128 | 5.2 | 7.8 | 0.00 | 0.00 | 0.00 | 39 | 1021.5 |
| 20260502113319 | 74 | 200 | 1.7 | 5.2 | 0.00 | 0.00 | 0.00 | 40 | 1021.7 |
| 20260502112819 | 74 | 185 | 1.7 | 2.6 | 0.00 | 0.00 | 0.00 | 40 | 1021.7 |
| 20260502111819 | 73 | 140 | 1.7 | 7.8 | 0.00 | 0.00 | 0.00 | 40 | 1021.9 |
| 20260502111319 | 74 | 128 | 5.2 | 7.8 | 0.00 | 0.00 | 0.00 | 39 | 1021.9 |
| 20260502110819 | 73 | 86 | 2.6 | 7.0 | 0.00 | 0.00 | 0.00 | 39 | 1022.0 |
| 20260502105820 | 73 | 116 | 2.6 | 6.1 | 0.00 | 0.00 | 0.00 | 39 | 1022.1 |
| 20260502105319 | 73 | 32 | 1.7 | 6.1 | 0.00 | 0.00 | 0.00 | 41 | 1022.2 |
| 20260502104818 | 73 | 109 | 2.6 | 7.0 | 0.00 | 0.00 | 0.00 | 40 | 1022.3 |
| 20260502104319 | 73 | 137 | 4.3 | 7.0 | 0.00 | 0.00 | 0.00 | 41 | 1022.4 |
| 20260502103819 | 72 | 103 | 2.6 | 5.2 | 0.00 | 0.00 | 0.00 | 41 | 1022.5 |
| 20260502103320 | 72 | 309 | 0.9 | 5.2 | 0.00 | 0.00 | 0.00 | 43 | 1022.5 |
| 20260502102818 | 72 | 277 | 0.9 | 5.2 | 0.00 | 0.00 | 0.00 | 42 | 1022.7 |
| 20260502101819 | 72 | 97 | 0.9 | 2.6 | 0.00 | 0.00 | 0.00 | 44 | 1022.8 |
| 20260502101319 | 72 | 98 | 1.7 | 4.3 | 0.00 | 0.00 | 0.00 | 42 | 1022.9 |
| 20260502100819 | 72 | 94 | 2.6 | 4.3 | 0.00 | 0.00 | 0.00 | 41 | 1023.0 |
| 20260502100319 | 71 | 125 | 0.9 | 2.6 | 0.00 | 0.00 | 0.00 | 44 | 1023.0 |
| 20260502091319 | 66 | 197 | 0.9 | 2.6 | 0.00 | 0.00 | 0.00 | 50 | 1023.9 |
| 20260502090819 | 65 | 197 | 1.7 | 2.6 | 0.00 | 0.00 | 0.00 | 54 | 1024.0 |
| 20260502090319 | 65 | 197 | 0.9 | 2.6 | 0.00 | 0.00 | 0.00 | 56 | 1024.1 |
| 20260502070819 | 52 | 103 | 1.7 | 2.6 | 0.00 | 0.00 | 0.00 | 77 | 1025.7 |
| 20260502070318 | 52 | 103 | 0.0 | 2.6 | 0.00 | 0.00 | 0.00 | 78 | 1025.7 |
| 20260502065819 | 52 | 103 | 1.7 | 2.6 | 0.00 | 0.00 | 0.00 | 80 | 1025.7 |
| 20260502065319 | 51 | 97 | 0.9 | 1.7 | 0.00 | 0.00 | 0.00 | 84 | 1025.8 |
| 20260502064820 | 50 | 109 | 0.9 | 1.7 | 0.00 | 0.00 | 0.00 | 83 | 1025.9 |
| 20260502063819 | 48 | 109 | 0.9 | 2.6 | 0.00 | 0.00 | 0.00 | 88 | 1026.2 |
| 20260502063319 | 47 | 300 | 0.9 | 1.7 | 0.00 | 0.00 | 0.00 | 91 | 1026.2 |
| 20260502062819 | 46 | 296 | 0.9 | 1.7 | 0.00 | 0.00 | 0.00 | 92 | 1026.2 |
| 20260502062318 | 45 | 298 | 0.9 | 1.7 | 0.00 | 0.00 | 0.00 | 94 | 1026.2 |
| 20260502061819 | 44 | 296 | 0.9 | 1.7 | 0.00 | 0.00 | 0.00 | 94 | 1026.2 |
| 20260502061319 | 44 | 292 | 0.9 | 2.6 | 0.00 | 0.00 | 0.00 | 95 | 1026.3 |
| 20260502060819 | 43 | 303 | 1.7 | 2.6 | 0.00 | 0.00 | 0.00 | 95 | 1026.4 |
| 20260502055319 | 42 | 292 | 0.9 | 2.6 | 0.00 | 0.00 | 0.00 | 96 | 1026.4 |
| 20260502054818 | 41 | 294 | 0.0 | 0.9 | 0.00 | 0.00 | 0.00 | 97 | 1026.4 |
| 20260502054318 | 40 | 299 | 0.0 | 0.9 | 0.00 | 0.00 | 0.00 | 95 | 1026.4 |
| 20260502053818 | 39 | 306 | 0.0 | 0.0 | 0.00 | 0.00 | 0.00 | 94 | 1026.5 |
| 20260502053319 | 39 | 296 | 0.0 | 0.0 | 0.00 | 0.00 | 0.00 | 94 | 1026.5 |
| 20260502052818 | 39 | 296 | 0.0 | 0.0 | 0.00 | 0.00 | 0.00 | 94 | 1026.5 |
| 20260502052319 | 39 | 297 | 0.0 | 0.0 | 0.00 | 0.00 | 0.00 | 94 | 1026.5 |
| 20260502051818 | 39 | 296 | 0.0 | 0.0 | 0.00 | 0.00 | 0.00 | 94 | 1026.5 |
| 20260502051318 | 39 | 296 | 0.0 | 0.0 | 0.00 | 0.00 | 0.00 | 94 | 1026.6 |
| 20260502050819 | 39 | 296 | 0.0 | 0.0 | 0.00 | 0.00 | 0.00 | 94 | 1026.6 |
| 20260502050318 | 39 | 295 | 0.0 | 0.0 | 0.00 | 0.00 | 0.00 | 94 | 1026.6 |
| 20260502045818 | 39 | 295 | 0.0 | 0.0 | 0.00 | 0.00 | 0.00 | 94 | 1026.7 |
| 20260502044318 | 39 | 296 | 0.0 | 0.0 | 0.00 | 0.00 | 0.00 | 94 | 1026.6 |
| 20260502043818 | 39 | 296 | 0.0 | 0.0 | 0.00 | 0.00 | 0.00 | 94 | 1026.5 |
| 20260502043318 | 39 | 296 | 0.0 | 0.0 | 0.00 | 0.00 | 0.00 | 94 | 1026.6 |
| 20260502042818 | 39 | 296 | 0.0 | 0.0 | 0.00 | 0.00 | 0.00 | 93 | 1026.6 |
| 20260502042318 | 39 | 296 | 0.0 | 0.9 | 0.00 | 0.00 | 0.00 | 94 | 1026.5 |
| 20260502041818 | 39 | 296 | 0.0 | 0.9 | 0.00 | 0.00 | 0.00 | 93 | 1026.5 |
| 20260502040819 | 39 | 296 | 0.0 | 0.0 | 0.00 | 0.00 | 0.00 | 93 | 1026.6 |
| 20260502040318 | 39 | 296 | 0.0 | 0.0 | 0.00 | 0.00 | 0.00 | 93 | 1026.6 |
| 20260502035818 | 39 | 298 | 0.0 | 0.0 | 0.00 | 0.00 | 0.00 | 93 | 1026.5 |
| 20260502035318 | 39 | 298 | 0.0 | 0.0 | 0.00 | 0.00 | 0.00 | 93 | 1026.5 |
| 20260502034818 | 39 | 298 | 0.0 | 0.0 | 0.00 | 0.00 | 0.00 | 93 | 1026.5 |
| 20260502034319 | 39 | 298 | 0.0 | 0.0 | 0.00 | 0.00 | 0.00 | 93 | 1026.5 |
| 20260502033818 | 39 | 298 | 0.0 | 0.9 | 0.00 | 0.00 | 0.00 | 93 | 1026.5 |
| 20260502033318 | 39 | 297 | 0.0 | 0.9 | 0.00 | 0.00 | 0.00 | 93 | 1026.5 |
| 20260502032819 | 39 | 298 | 0.0 | 0.0 | 0.00 | 0.00 | 0.00 | 93 | 1026.4 |
| 20260502032318 | 39 | 298 | 0.0 | 0.0 | 0.00 | 0.00 | 0.00 | 93 | 1026.3 |
| 20260502031318 | 39 | 298 | 0.0 | 0.0 | 0.00 | 0.00 | 0.00 | 93 | 1026.4 |
| 20260502030818 | 40 | 298 | 0.0 | 0.0 | 0.00 | 0.00 | 0.00 | 93 | 1026.4 |
| 20260502030318 | 40 | 298 | 0.0 | 0.9 | 0.00 | 0.00 | 0.00 | 93 | 1026.4 |
| 20260502025818 | 40 | 298 | 0.0 | 0.9 | 0.00 | 0.00 | 0.00 | 93 | 1026.4 |
| 20260502025318 | 40 | 298 | 0.9 | 0.9 | 0.00 | 0.00 | 0.00 | 93 | 1026.4 |
| 20260502024319 | 40 | 299 | 0.0 | 0.0 | 0.00 | 0.00 | 0.00 | 92 | 1026.5 |
| 20260502023818 | 40 | 299 | 0.0 | 0.0 | 0.00 | 0.00 | 0.00 | 92 | 1026.5 |
| 20260502022818 | 41 | 298 | 0.0 | 0.9 | 0.00 | 0.00 | 0.00 | 93 | 1026.5 |
| 20260502022318 | 41 | 298 | 0.9 | 0.9 | 0.00 | 0.00 | 0.00 | 93 | 1026.5 |
| 20260502021318 | 40 | 298 | 0.0 | 0.0 | 0.00 | 0.00 | 0.00 | 92 | 1026.5 |
| 20260502020818 | 40 | 298 | 0.0 | 0.0 | 0.00 | 0.00 | 0.00 | 92 | 1026.4 |
| 20260502020318 | 40 | 299 | 0.0 | 0.9 | 0.00 | 0.00 | 0.00 | 92 | 1026.5 |
| 20260502015820 | 41 | 299 | 0.0 | 0.9 | 0.00 | 0.00 | 0.00 | 92 | 1026.4 |
| 20260502015319 | 41 | 299 | 0.0 | 0.9 | 0.00 | 0.00 | 0.00 | 92 | 1026.5 |
| 20260502014818 | 41 | 299 | 0.0 | 0.9 | 0.00 | 0.00 | 0.00 | 92 | 1026.5 |
| 20260502014318 | 41 | 299 | 0.0 | 0.9 | 0.00 | 0.00 | 0.00 | 92 | 1026.4 |
| 20260502013818 | 41 | 299 | 0.0 | 0.0 | 0.00 | 0.00 | 0.00 | 92 | 1026.4 |
| 20260502013318 | 41 | 299 | 0.0 | 0.9 | 0.00 | 0.00 | 0.00 | 92 | 1026.4 |
| 20260502012318 | 41 | 299 | 0.0 | 0.0 | 0.00 | 0.00 | 0.00 | 92 | 1026.5 |
| 20260502011819 | 41 | 299 | 0.0 | 0.9 | 0.00 | 0.00 | 0.00 | 92 | 1026.7 |
| 20260502011318 | 41 | 299 | 0.0 | 0.9 | 0.00 | 0.00 | 0.00 | 91 | 1026.6 |
| 20260502010819 | 41 | 299 | 0.0 | 0.9 | 0.00 | 0.00 | 0.00 | 91 | 1026.6 |
| 20260502010318 | 42 | 299 | 0.0 | 0.0 | 0.00 | 0.00 | 0.00 | 91 | 1026.6 |
| 20260502005819 | 42 | 299 | 0.0 | 0.9 | 0.00 | 0.00 | 0.00 | 91 | 1026.6 |
| 20260502005318 | 42 | 299 | 0.0 | 0.9 | 0.00 | 0.00 | 0.00 | 91 | 1026.6 |